Weather Roundup
Issued by NWS

Home | Current Version | Previous Version | Graphics & Text | Print | Product List | Glossary Off
Versions: 1 2 3 4 5 6 7 8 9 10 11 12 13 14 15 16 17 18 19 20 21 22 23 24 25 26 27 28 29 30 31 32 33 34 35 36 37 38 39 40 41 42 43 44 45 46 47 48 49 50

000
NZUS93 KARX 280959
HRRWXR

CURRENT HOURLY OBSERVATIONS ACROSS
MUCH OF THE UPPER MISSISSIPPI VALLEY
NATIONAL WEATHER SERVICE LA CROSSE WI
400 AM CST FRI NOV 28 2014


...SOUTHEAST MINNESOTA...


CITY           SKY/WX    TMP DP  RH WIND       PRES   REMARKS
ROCHESTER      CLOUDY    11   7  84 SE21      30.09F WCI  -8
ROCHESTER/MAYO CLOUDY    11   6  79 E12G18    30.11F WCI  -3
WINONA         LGT SNOW  14  12  92 SE9       30.20F WCI   2
AUSTIN         CLOUDY    12   5  73 SE14      30.07F WCI  -3
ALBERT LEA     NOT AVBL
DODGE CENTER   CLOUDY    12   9  85 SE18      30.05F WCI  -5
PRESTON        CLOUDY    11   7  85 SE10      30.13F WCI  -3
OWATONNA       CLOUDY    14   7  73 SE14      30.04F WCI  -1
FARIBAULT      MOCLDY    12   7  79 SE10      30.07F WCI  -1
$$

...ELSEWHERE IN MINNESOTA...


CITY           SKY/WX    TMP DP  RH WIND       PRES   REMARKS
MINNEAPOLIS    CLOUDY    10   6  84 SE12      30.10F WCI  -5
INTNL FALLS    CLOUDY     5  -2  72 SE5       30.09F WCI  -4
DULUTH         FLURRIES   6   0  76 SE5       30.10F WCI  -3
RED WING       CLOUDY    12   7  79 SE14      30.13F WCI  -3
REDWOOD FALLS  CLEAR     10   4  76 SE12      30.00F WCI  -5
MANKATO        CLOUDY    12   3  67 SE16      30.02F WCI  -4
WORTHINGTON    CLEAR     12   9  85 S8        29.93F WCI   1
FAIRMONT       CLOUDY    14   7  73 SE17      29.98F WCI  -3
$$

...SOUTHWEST WISCONSIN...


CITY           SKY/WX    TMP DP  RH WIND       PRES   REMARKS
LA CROSSE      LGT SNOW  14   9  80 SE7       30.23F WCI   4
PRAIRIE DU CHI CLOUDY    15   8  73 SE7       30.26F WCI   6
BOSCOBEL       FLURRIES  15   7  70 SE3       30.26F
LONE ROCK      NOT AVBL
PLATTEVILLE    CLOUDY    15   8  76 CALM      30.28F
FORT MC COY    LGT SNOW  12   7  81 SE3       30.25F
CAMP DOUGLAS   FLURRIES  10   7  85 SE6       30.24F WCI   1
VIROQUA        CLOUDY    11   8  86 SE9       30.20F WCI  -2
WIS DELLS      NOT AVBL
$$

...ELSEWHERE IN WISCONSIN...


CITY           SKY/WX    TMP DP  RH WIND       PRES   REMARKS
MILWAUKEE      CLOUDY    15   7  70 CALM      30.34F
MADISON        CLOUDY    14   8  77 S10       30.28F WCI   1
GREEN BAY      CLOUDY     9   4  80 S6        30.30F WCI  -1
EAU CLAIRE     LGT SNOW   9   4  80 SE7       30.19F WCI  -2
BLACK RVR FLS  LGT SNOW  10   6  82 SE3       30.24F
MEDFORD        LGT SNOW   6   1  81 SE5       30.18F WCI  -3
WAUSAU         CLOUDY     6   0  76 SE3       30.21F
WIS RAPIDS     CLOUDY     7   2  80 S5        30.26F WCI  -2
MARSHFIELD     FLURRIES   8   3  80 S6        30.20F WCI  -2
RICE LAKE      LGT SNOW   9   5  84 E7        30.18F WCI  -3
$$

...NORTHEAST IOWA...


CITY           SKY/WX    TMP DP  RH WIND       PRES   REMARKS
DECORAH        CLOUDY    12   9  85 SE12      30.17F WCI  -2
MASON CITY     MOCLDY    12   4  70 SE17      30.07F WCI  -5
CHARLES CITY   CLOUDY    14   3  62 SE16      30.14F WCI  -2
OELWEIN        CLOUDY    16   9  73 SE16      30.18F WCI   0
$$

...ELSEWHERE IN IOWA...


CITY           SKY/WX    TMP DP  RH WIND       PRES   REMARKS
DES MOINES     PTCLDY    20  14  77 SE9       30.09F WCI   9
IOWA CITY      CLOUDY    15   6  67 SE10      30.25F WCI   2
FORT DODGE     CLOUDY    18  10  73 SE10G16   30.03F WCI   6
$$

...NORTHERN ILLINOIS...


CITY           SKY/WX    TMP DP  RH WIND       PRES   REMARKS
CHICAGO-OHARE  CLOUDY    19  11  70 S3        30.34F
CHICAGO-MIDWAY CLOUDY    21  12  68 S6        30.36F WCI  13
MOLINE         CLOUDY    17  10  74 E9        30.28F WCI   6
ROCKFORD       FLURRIES  16   7  67 SE6       30.34F WCI   7
PEORIA         CLOUDY    19  10  68 S9        30.34F WCI   8
$$

NOTE: "FAIR" INDICATES FEW OR NO CLOUDS BELOW 12,000 FEET WITH NO
SIGNIFICANT WEATHER AND/OR OBSTRUCTIONS TO VISIBILITY. WIND
SPEEDS ARE IN MILES-PER-HOUR.



USA.gov is the U.S. government's official web portal to all federal, state and local government web resources and services.